Weather in Port Said

Egypt     31°14′19″N   32°17′59″E
temp.,
°C
wind,
m/s
gust,
m/s
humid.,
%
clouds,
%
prec.,
mm/h
press.,
hPa
HPBL,
m
24 february, wed
wed2423:00+17n10117091 1.7 1021748
02:00+17n12146296 2.2 1021965
05:00+16n10116610 0.0 10221065
08:00+16n910685 0.0 1022990
11:00+16nnw67690 0.0 1023839
14:00+17nw67690 0.0 1021864
17:00+17nw78740 0.0 1022802
20:00+17nw67750 0.0 1022680
25 february, thu
thu2523:00+17nw56790 0.0 1023593
02:00+16wnw55820 0.0 1022600
05:00+14wsw559021 0.0 1022250
08:00+15wsw669111 0.0 1022286
11:00+16w457817 0.0 1022576
14:00+17n44768 0.0 1020261
17:00+17nnw78790 0.0 1020588
20:00+16wnw55760 0.0 1021669
26 february, fri
fri2623:00+16wnw447528 0.0 1021725
02:00+14wsw438350 0.0 1020244
05:00+14wsw32780 0.0 1020327
08:00+14wsw22810 0.0 1020309
11:00+14nw22800 0.0 1021258
14:00+15ne33760 0.0 1019224
17:00+16ene66750 0.0 1019347
20:00+16ne77790 0.4 1019470
27 february, sat
sat2723:00+17ne67770 0.4 1019438
02:00+17ne56750 0.6 1018573
05:00+17ne56760 0.4 1017631
08:00+17nne66760 0.4 1018679
11:00+17nne56750 0.0 1018681
14:00+17nne67730 0.0 1017701
17:00+17n78750 0.0 1017682
20:00+17n67730 0.0 1018679
28 february, sun
sun2823:00+17n67730 0.0 1018627
02:00+16n66740 0.0 1018704
05:00+16nnw55770 0.0 1018774
08:00+16nnw44737 0.0 1019801
11:00+16nw44696 0.0 1019839
14:00+16nnw66723 0.0 1018660
17:00+16nnw77730 0.0 1018698
20:00+16nnw56720 0.0 1019918